Regional Weather Roundup
Issued by NWS

Home | Current Version | Previous Version | Text Only | Print | Product List | Glossary On
Versions: 1 2 3 4 5 6 7 8 9 10 11 12 13 14 15 16 17 18 19 20 21 22 23 24 25 26 27 28 29 30 31 32 33 34 35 36 37 38 39 40 41 42 43 44 45 46 47 48 49 50
000
ASUS44 KFWD 261715
RWRTX
NORTH TEXAS HOURLY WEATHER ROUNDUP
NATIONAL WEATHER SERVICE FORT WORTH TX
1200 PM CDT SAT JUL 26 2014

NOTE: "FAIR" INDICATES FEW OR NO CLOUDS BELOW 12,000 FEET WITH NO
SIGNIFICANT WEATHER AND/OR OBSTRUCTIONS TO VISIBILITY.

TXZ118-119-261800-
DALLAS/FORT WORTH METROPLEX

CITY           SKY/WX    TMP DP  RH WIND       PRES   REMARKS
DFW AIRPORT    MOSUNNY   96  68  39 SW13G22   29.99F HX 101
DALLAS LOVE    MOSUNNY   93  68  43 S10       30.00F HX  97
FTW MEACHAM    SUNNY     94  70  45 S8        29.99F HX 100
DAL-EXECUTIVE  SUNNY     96  69  41 VRB6      30.00F HX 102
FTW-ALLIANCE   MOSUNNY   93  69  45 S8        29.99F HX  98
FTW-NAS-JRB    SUNNY     97  66  36 S12       30.04S HX 100
FTW-SPINKS     SUNNY     95  68  41 S10G18    30.02F HX  99
ARLINGTON      SUNNY     94  67  41 S13       30.00F HX  97
GRAND PRAIRIE  SUNNY     93  64  38 S9        30.02S HX  95
MESQUITE       SUNNY     91  70  49 S12       30.01F HX  97
LANCASTER      SUNNY     94  67  40 SW12      30.02S HX  97
$$

TXZ091>094-102>105-117-120-121-131>134-261800-
NORTH CENTRAL TEXAS

CITY           SKY/WX    TMP DP  RH WIND       PRES   REMARKS
SHRMAN/DENISON SUNNY     93  68  44 S13G18    30.01F HX  97
GAINESVILLE    SUNNY     91  71  51 S10G18    30.02S HX  97
BOWIE          SUNNY     91  71  50 S10       30.01S HX  97
BRIDGEPORT     SUNNY     92  67  43 S3        30.02F HX  95
DECATUR        SUNNY     91  67  44 S8        30.01F HX  94
DENTON         SUNNY     92  70  48 SW10      30.00F HX  97
MCKINNEY       SUNNY     93  70  46 S9        30.00F HX  99
GREENVILLE     SUNNY     91  68  46 S8G16     30.02S HX  95
ROCKWALL       SUNNY     91  72  54 SW10      30.00F HX  97
TERRELL        SUNNY     93  70  46 SW10G17   30.02S HX  99
WAXAHACHIE     SUNNY     93  64  38 SW13      30.02F HX  94
CLEBURNE       SUNNY     91  72  52 S9G16     30.03F HX  98
GRANBURY       SUNNY     96  65  36 S9        30.02S HX  99
$$

TXZ083>090-098>101-113>116-127>130-139>142-154-155-261800-
WESTERN NORTH TEXAS

CITY           SKY/WX    TMP DP  RH WIND       PRES   REMARKS
WICHITA FALLS  SUNNY     93  69  45 SW12      29.98S HX  98
WF-KICKAPOO    SUNNY     94  63  36 SW8G17    30.00S HX  95
VERNON         SUNNY     94  63  35 SW10G16   29.99S HX  96
ABILENE        SUNNY     90  68  48 S14       30.04S HX  94
ABILENE-DYESS  MOSUNNY   92  69  46 S14G20    30.02S HX  97
BRECKENRIDGE   SUNNY     95  63  34 SW9       30.01F HX  96
GRAHAM         SUNNY     94  65  37 S7        29.99F HX  96
MINERAL WELLS  SUNNY     94  67  41 S13       29.99F HX  97
STEPHENVILLE   SUNNY     92  64  39 SW13      30.06S HX  93
COMANCHE       SUNNY     91  66  43 SW13      30.04S HX  94
BROWNWOOD      SUNNY     90  68  48 S12       30.04F HX  93
COLEMAN        SUNNY     90  66  44 S9        30.05F HX  92
BRADY          SUNNY     91  66  43 S13       30.05F HX  94
$$

TXZ143>147-156>162-174-175-261800-
CENTRAL TEXAS

CITY           SKY/WX    TMP DP  RH WIND       PRES   REMARKS
WACO           SUNNY     92  71  50 S14       30.02F HX  98
WACO-TSTC      SUNNY     91  70  49 S10       30.02F HX  97
WACO-MCGREGOR  SUNNY     93  70  46 S13G18    30.03F HX  99
HILLSBORO      SUNNY     92  68  44 S7        30.02F HX  96
CORSICANA      SUNNY     91  69  48 S8G23     30.03F HX  96
MEXIA          SUNNY     89  72  55 SW12      30.03F HX  96
HEARNE         SUNNY    N/A N/A N/A S14       30.04F
CAMERON        SUNNY     91  72  53 SW14G21   30.04S HX  97
TEMPLE         SUNNY     90  68  48 S18       30.04S HX  93
KILLEEN        MOSUNNY   90  70  51 S13G20    30.04S HX  95
KILLEEN-SKYLRK SUNNY     91  68  46 S9G17     30.04S HX  95
FORT HOOD      SUNNY     93  68  43 S10       30.04S HX  97
GATESVILLE     SUNNY     91  70  49 S9        30.05F HX  97
HAMILTON       SUNNY     91  68  46 S10G21    30.05F HX  95
LAMPASAS       SUNNY     91  71  51 SW8       30.04S HX  96
$$

TXZ095>097-106>112-122>126-135>138-148>153-164>167-261800-
EAST TEXAS

CITY           SKY/WX    TMP DP  RH WIND       PRES   REMARKS
PARIS          SUNNY     90  72  55 SW13      30.02F HX  96
SULPHUR SPRNGS SUNNY     91  71  52 SW8       30.04S HX  97
CLARKSVILLE    SUNNY     91  72  54 SW7       30.02F HX  98
MOUNT PLEASANT SUNNY     91  69  49 SW8       30.04S HX  95
GILMER         SUNNY     90  73  58 S6        30.05S HX  98
MINEOLA        SUNNY     90  73  58 S7        30.04S HX  98
TYLER          SUNNY     89  71  55 SW10      30.04F HX  95
LONGVIEW       SUNNY     90  72  55 S7        30.04S HX  97
MARSHALL       SUNNY     91  74  56 SW5       30.06F HX 101
ATHENS         SUNNY     88  72  58 S5        30.03S HX  94
JACKSONVILLE   SUNNY     88  69  54 S8G16     30.08S HX  92
HENDERSON      SUNNY     89  71  56 S8        30.06F HX  94
NACOGDOCHES    MOSUNNY   88  73  62 SW5       30.06F HX  96
LUFKIN         SUNNY     92  72  51 SW8       30.06S HX  99
$$

SUPPLEMENTAL OBSERVATIONS (CENTRAL)

CITY           SKY/WX    TMP DP  RH WIND       PRES   REMARKS
LAKE TEXOMA      N/A     90  64  43 SW15        N/A  HX  91
CADDO GRASSLND   N/A     91  72  52 SW9G17      N/A  HX  98
PAT MAYSE LAKE   N/A     90  72  55 S13         N/A  HX  96
GREENVILLE       N/A     91  72  52 SW9         N/A  HX  98
CEDAR HILL       N/A     95  66  38 S8          N/A  HX  98
ATHENS           N/A     91  73  55 S9          N/A  HX 100
PALESTINE        N/A     90  72  55 SW2         N/A  HX  96
LAKE LIMESTONE   N/A     90  79  70 S9G17       N/A  HX 105
MCGREGOR         N/A     93  68  43 S10G18      N/A  HX  97
TEMPLE           N/A     91  68  46 S14         N/A  HX  95
$$

SUPPLEMENTAL OBSERVATIONS (WEST)

CITY           SKY/WX    TMP DP  RH WIND       PRES   REMARKS
MILLERS CREEK    N/A     93  68  43 SW12        N/A  HX  97
POSSUM KINGDOM   N/A     97  64  34 S7G15       N/A  HX  99
LBJ GRASSLAND    N/A     93  70  46 S6          N/A  HX  99
GRANBURY         N/A     95  66  38 S13         N/A  HX  98
COMANCHE         N/A     91  68  46 S12         N/A  HX  95
HAMBY            N/A     93  66  40 S13         N/A  HX  96
IVIE RESERVOIR   N/A     93  66  40 S9          N/A  HX  96
COLORADO BEND    N/A     91  66  43 S10         N/A  HX  94
$$

SUPPLEMENTAL OBSERVATIONS (EAST)

CITY           SKY/WX    TMP DP  RH WIND       PRES   REMARKS
CLARKSVILLE      N/A     93  73  52 S8          N/A  HX 102
TEXARKANA        N/A     91  73  55 SW5         N/A  HX 100
LINDEN           N/A     91  72  52 SW5         N/A  HX  98
CADDO LAKE       N/A     91  72  52 SW3         N/A  HX  98
GILMER           N/A     91  72  52 S7          N/A  HX  98
HENDERSON        N/A     90  72  55 S9          N/A  HX  96
LUFKIN           N/A     90  82  79 MISG        N/A  HX 111
N SABINE NF      N/A     91  73  55 MISG        N/A  HX 100
S SABINE NF      N/A     91  73  55 S5          N/A  HX 100
$$

SUPPLEMENTAL OBSERVATIONS ARE A COLLECTION OF AUTOMATED INSTRUMENTS
THAT ARE MAINTAINED BY A VARIETY OF FEDERAL AND STATE AGENCIES.
CERTAIN ELEMENTS...SUCH AS HUMIDITY VALUES AND SUSTAINED WIND
SPEEDS...MAY BE APPROXIMATED.



USA.gov is the U.S. government's official web portal to all federal, state and local government web resources and services.